Whitefield, NH

11:25 PM EDT on May 27, 2018 (GMT -0400)
Mount Washington Regional

Weather History for KHIE - November, 2011

Change the Weather History Date:

Saturday, November 26, 2011

  Actual Average Record
Temperature  
Mean Temperature 32 °F -  
Max Temperature 43 °F 37 °F 62 °F (1999)
Min Temperature 21 °F 20 °F 3 °F (2005)
Degree Days  
Heating Degree Days 33    
Moisture  
Dew Point 30 °F    
Average Humidity 95    
Maximum Humidity 100    
Minimum Humidity 76    
Precipitation  
Precipitation 0.00 in - - ()
Sea Level Pressure  
Sea Level Pressure 30.17 in    
Wind  
Wind Speed 0 mph (SSE)    
Max Wind Speed 4 mph    
Max Gust Speed -    
Visibility 7 miles    
Events Fog    
Averages and records for this station are not official NWS values.
T = Trace of Precipitation, MM = Missing Value Source: NWS Daily Summary

Daily Weather History Graph

Daily Weather History Graph

Search for Another Location

Airport or City:

Astronomy

Nov. 26, 2011 Rise Set
Actual Time 6:55 AM EST 4:10 PM EST
Civil Twilight 6:23 AM EST 4:42 PM EST
Nautical Twilight 5:47 AM EST 5:18 PM EST
Astronomical Twilight 5:12 AM EST 5:53 PM EST
Moon 8:26 AM EST (11/26) 5:36 PM EST (11/26)
Length of Visible Light 10h 19m
Length of Day
9h 14m
Waxing Crescent, 3% of the Moon is Illuminated
Nov 26
Waxing Crescent
Dec 2
First Quarter
Dec 10
Full
Dec 17
Last Quarter
Dec 24
New

Hourly Weather History & Observations

Time (EST) Temp. Windchill Dew Point Humidity Pressure Visibility Wind Dir Wind Speed Gust Speed Precip Events Conditions
12:52 AM 24.1 °F - 23.0 °F 96% 30.04 in 5.0 mi Calm Calm - N/A   Clear
1:52 AM 24.1 °F - 23.0 °F 96% 30.05 in 9.0 mi Calm Calm - N/A   Clear
2:52 AM 21.9 °F - 21.0 °F 96% 30.06 in 9.0 mi Calm Calm - N/A   Clear
3:52 AM 21.9 °F - 21.0 °F 96% 30.07 in 9.0 mi Calm Calm - N/A   Clear
4:52 AM 21.9 °F - 19.9 °F 92% 30.09 in 10.0 mi Calm Calm - N/A   Clear
5:52 AM 23.0 °F - 21.0 °F 92% 30.11 in 10.0 mi Calm Calm - 0.00 in   Mostly Cloudy
7:52 AM 28.0 °F - 28.0 °F 100% 30.15 in 8.0 mi Calm Calm - N/A   Overcast
8:52 AM 30.9 °F - 30.0 °F 96% 30.17 in 9.0 mi Calm Calm - N/A   Overcast
9:52 AM 32.0 °F - 32.0 °F 100% 30.19 in 8.0 mi Calm Calm - N/A   Overcast
10:52 AM 34.0 °F - 34.0 °F 100% 30.19 in 6.0 mi Calm Calm - N/A   Overcast
11:52 AM 37.0 °F - 36.0 °F 96% 30.17 in 10.0 mi Calm Calm - N/A   Overcast
12:52 PM 39.9 °F - 37.0 °F 89% 30.18 in 10.0 mi Calm Calm - N/A   Overcast
1:52 PM 43.0 °F - 36.0 °F 76% 30.17 in 10.0 mi Calm Calm - N/A   Overcast
2:52 PM 41.0 °F - 37.9 °F 89% 30.18 in 10.0 mi Calm Calm - N/A   Clear
3:52 PM 37.9 °F - 37.0 °F 97% 30.20 in 9.0 mi Calm Calm - N/A   Clear
4:52 PM 35.1 °F - 34.0 °F 96% 30.20 in 9.0 mi Calm Calm - N/A   Clear
5:52 PM 34.0 °F - 33.1 °F 96% 30.22 in 9.0 mi Calm Calm - N/A   Clear
6:52 PM 33.1 °F - 32.0 °F 96% 30.23 in 9.0 mi Calm Calm - N/A   Clear
7:52 PM 34.0 °F - 33.1 °F 96% 30.21 in 9.0 mi Calm Calm - N/A   Scattered Clouds
8:52 PM 34.0 °F - 33.1 °F 96% 30.23 in 7.0 mi Calm Calm - N/A   Clear
9:52 PM 32.0 °F - 30.9 °F 96% 30.22 in 5.0 mi Calm Calm - N/A   Clear
10:28 PM 30.2 °F - 30.2 °F 100% 30.19 in 2.0 mi Calm Calm - N/A   Partly Cloudy
10:37 PM 30.2 °F 26.7 °F 28.4 °F 93% 30.19 in 1.5 mi SSE 3.5 mph - N/A   Scattered Clouds
10:41 PM 30.2 °F 26.7 °F 28.4 °F 93% 30.19 in 2.0 mi SSE 3.5 mph - N/A   Mostly Cloudy
10:49 PM 30.2 °F - 28.4 °F 93% 30.19 in 3.0 mi Calm Calm - N/A   Scattered Clouds
10:52 PM 30.0 °F - 28.9 °F 96% 30.23 in 3.0 mi Calm Calm - N/A   Scattered Clouds
10:59 PM 30.2 °F - 28.4 °F 93% 30.19 in 2.0 mi Calm Calm - N/A   Scattered Clouds
11:24 PM 30.2 °F - 28.4 °F 93% 30.18 in 0.8 mi Calm Calm - N/A   Mist
11:52 PM 28.9 °F - 28.0 °F 96% 30.21 in 0.2 mi Calm Calm - N/A Fog Light Freezing Fog